Regional Weather Roundup
Issued by NWS

Home | Current Version | Previous Version | Graphics & Text | Print | Product List | Glossary On
Versions: 1 2 3 4 5 6 7 8 9 10 11 12 13 14 15 16 17 18 19 20 21 22 23 24 25 26 27 28 29 30 31 32 33 34 35 36 37 38 39 40 41 42 43 44 45 46 47 48 49 50
000
ASUS43 KLOT 292206
RWRIL

ILLINOIS REGIONAL WEATHER ROUNDUP
NATIONAL WEATHER SERVICE CHICAGO/ROMEOVILLE IL
400 PM CST THU JAN 29 2015

NOTE: "FAIR" INDICATES FEW OR NO CLOUDS BELOW 12,000 FEET WITH NO
SIGNIFICANT WEATHER AND/OR OBSTRUCTIONS TO VISIBILITY.

* THESE STATIONS ARE NOT UNDER NWS QUALITY CONTROL. THEY ALSO MAY NOT
  REPORT WEATHER SUCH AS PRECIPITATION OR FOG.

ILZ001-002-007-009-015-016-024-292300-
NORTHWEST ILLINOIS

CITY           SKY/WX    TMP DP  RH WIND       PRES   REMARKS
MOLINE         CLOUDY    35  28  75 NW16      30.19R WCI  25
STERLING*      CLOUDY    36  28  75 NW13      30.14R WCI  27
SAVANNA*       CLOUDY    37  26  65 NW20      30.15R WCI  26
$$

ILZ003-004-008-010-011-017-018-292300-
NORTH CENTRAL ILLINOIS

CITY           SKY/WX    TMP DP  RH WIND       PRES   REMARKS
ROCKFORD       CLOUDY    36  25  64 NW20G30   30.12R WCI  25
FREEPORT*      CLOUDY    34  25  69 NW21      30.13R WCI  23
ROCHELLE*      CLOUDY    34  28  78 NW17      30.10R WCI  24
DE KALB*       CLOUDY    33  26  76 NW12      30.08R WCI  24
PERU*          CLOUDY    36  31  83 NW14      30.13R WCI  27
$$

ILZ005-006-012>014-019>023-292300-
NORTHEAST ILLINOIS

CITY           SKY/WX    TMP DP  RH WIND       PRES   REMARKS
CHICAGO-OHARE  CLOUDY    34  26  72 NW15G23   30.05R WCI  24
CHICAGO-MIDWAY CLOUDY    36  27  69 NW15      30.06R WCI  27
AURORA         CLOUDY    35  27  72 NW14      30.09R WCI  26
LANSING*       CLOUDY    34  27  75 NW12G17   30.06R WCI  26
JOLIET*        CLOUDY    34  27  75 NW10      30.09R WCI  26
WAUKEGAN       CLOUDY    34  25  69 NW13G20   30.04R WCI  25
DUPAGE AIRPORT CLOUDY    35  25  66 NW14G25   30.06R WCI  26
KANKAKEE*      CLOUDY    34  29  82 NW13G20   30.09R WCI  25
WHEELING       CLOUDY    35  26  69 NW14G22   30.07R WCI  26
MORRIS*        CLOUDY    34  31  90 NW10      30.10R WCI  26
ROMEOVILLE*    CLOUDY    34  27  74 NW18      30.08R WCI  23
NORTHERLY ISL    N/A     35  26  70 NW16        N/A  WCI  25
$$

LMZ740>746-292300-
SOUTHERN LAKE MICHIGAN

STATION/POSITION SKY/WX   TEMP    WIND        PRES    VSBY  WAVE
                          AIR SEA DIR/SP/G                  HT/PER
                          (F)     (DEG/KT/KT) (MB)    (MI)  (FT/S)
WAUKEGAN HARBOR            35     320/  9/ 22   N/A
HARRISON CRIB              34     310/ 19/ 22   N/A
BURNHAM HARBOR             35     300/  8/ 15   N/A
CALUMET HARBOR             35     290/  9/ 14   N/A
MICHIGAN CITY              34     310/ 24/ 27   N/A
$$

ILZ025>027-034>036-040-047-049-050-058-095>099-292300-
WEST-CENTRAL ILLINOIS

CITY           SKY/WX    TMP DP  RH WIND       PRES   REMARKS
QUINCY         CLOUDY    35  28  75 NW17      30.27R WCI  25
GALESBURG*     CLOUDY    34  30  86 NW16G24   30.21R WCI  23
MACOMB*        CLOUDY    34  29  83 NW21G28   30.26R WCI  22
JACKSONVILLE*  CLOUDY    38  30  74 NW16      30.24R WCI  29
PITTSFIELD*    CLOUDY    36  30  79 NW14G24   30.27R WCI  27
$$

ILZ028>032-037-038-041>044-048-051>054-059>061-292300-
CENTRAL ILLINOIS

CITY           SKY/WX    TMP DP  RH WIND       PRES   REMARKS
PONTIAC        CLOUDY    35  32  87 NW10G17   30.13R WCI  28
BLOOMINGTON    CLOUDY    36  31  82 NW17      30.15R WCI  26
DECATUR        CLOUDY    36  32  85 NW13G22   30.17R WCI  27
PEORIA         CLOUDY    37  31  78 NW10      30.18R WCI  30
LACON*         CLOUDY    35  29  79 NW12G22   30.15R WCI  27
LINCOLN*       DRIZZLE   37  32  85 NW10G24   30.19R WCI  29
SPRINGFIELD    CLOUDY    38  30  73 NW17G24   30.21R WCI  28
TAYLORVILLE    CLOUDY    36  32  87 W14G22    30.20R WCI  27
$$

ILZ033-039-045-046-055>057-062-063-292300-
EAST-CENTRAL ILLINOIS

CITY           SKY/WX    TMP DP  RH WIND       PRES   REMARKS
CHAMPAIGN      CLOUDY    35  31  85 NW15      30.13R WCI  25
DANVILLE*      LGT RAIN  32  31  96 NW15      30.08R WCI  22
RANTOUL*       CLOUDY    36  32  85 NW17G23   30.12R WCI  26
MATTOON        CLOUDY    35  32  88 NW10      30.15R FOG     WCI  27
PARIS*         CLOUDY    34  32  93 NW9       30.13R FOG     WCI  26
$$

ILZ079-100>102-292300-
SOUTHWEST ILLINOIS

CITY           SKY/WX    TMP DP  RH WIND       PRES   REMARKS
ALTON          CLOUDY    39  30  70 NW14      30.24R WCI  31
BELLEVILLE     CLOUDY    41  33  72 NW9       30.23R
CAHOKIA*       CLOUDY    42  31  64 NW17G28   30.25R
SPARTA*        CLOUDY    40  32  73 NW12G20   30.24R
$$

ILZ064>066-069>071-074>076-080>082-084>086-088>090-092>094-292300-
SOUTH-CENTRAL ILLINOIS

CITY           SKY/WX    TMP DP  RH WIND       PRES   REMARKS
CARBONDALE     CLOUDY    42  30  62 NW10G22   30.23R
CAIRO*         CLOUDY    45  32  60 NW17G24   30.24R
EFFINGHAM*     DRIZZLE   37  32  82 W13       30.20R WCI  28
MARION         CLOUDY    43  32  65 NW14G21   30.23R
MT. VERNON     CLOUDY    39  30  70 W7        30.22R WCI  34
CENTRALIA*     CLOUDY    38  32  80 NW9       30.22R WCI  31
SALEM*         DRIZZLE   39  35  86 NW20G25   30.21R WCI  30
METROPOLIS*    CLOUDY    43  33  66 NW10      30.21R
$$

ILZ067-068-072-073-078-083-087-091-292300-
SOUTHEAST ILLINOIS

CITY           SKY/WX    TMP DP  RH WIND       PRES   REMARKS
LAWRENCEVILLE  CLOUDY    37  32  82 NW17      30.16R HAZE    WCI  27
FLORA*         CLOUDY    37  36  94 NW9       30.20R FOG     WCI  30
FAIRFIELD*     CLOUDY    38  34  85 NW7       30.19R HAZE    WCI  33
HARRISBURG*    CLOUDY    41  32  71 NW16G23   30.22R
ROBINSON*      CLOUDY    36  32  87 NW13      30.16R FOG     WCI  27
CARMI*         CLOUDY    42  35  77 NW20      30.18R
$$

ABBREVIATIONS USED IN REMARKS
   TC - TEMPERATURE IN CELSIUS
  WCI - WIND CHILL INDEX
   HX - HEAT INDEX
  VSB - VISIBILITY
$$



USA.gov is the U.S. government's official web portal to all federal, state and local government web resources and services.